{"data":{"norad_id":41744,"intl_designator":"2016-052A","name":"USA 270","alt_names":[],"object_type":"PAYLOAD","status":"ACTIVE","operator":null,"country":"US","launch_date":"2016-08-19","launch_site_code":"AFETR","launch_vehicle":null,"mission":null,"orbit_class":"UNKNOWN","rcs_meters":null,"size_class":null,"mass_kg":null,"dimensions":null,"purposes":["comms"],"wikipedia_slug":null,"has_3d_model":false,"image_url":null,"decayed_at":null,"tle_current":{"epoch":"2026-09-18T07:21:33.365088Z","epoch_age_seconds":216618,"freshness":"STALE","line1":"1 41744U 16052A   26261.30663617 -.00000354  00000+0  00000+0 0  9994","line2":"2 41744   4.4298  75.9506 0008421 116.6505  41.3306  1.00268485 29068","mean_motion":1.00268485,"eccentricity":0.0008421,"inclination_deg":4.4298,"raan_deg":75.9506,"arg_perigee_deg":116.6505,"mean_anomaly_deg":41.3306,"bstar":0,"rev_number":2906,"period_min":1436.1441683297,"perigee_km":35752.012396516,"apogee_km":35823.027796197,"semimajor_km":42165.657096356,"source":"CELESTRAK","updated_at":"2026-09-20T09:00:35.247224Z"}}}